WZZ21LR LICA-EPWA

Flight info

Callsign WZZ21LR
Flight time 2h 8m
Altitude 18000
Route ARBUM M620 POLIT P748 VEGAN/N0429F360 DCT VEBOX DCT AFCAM/N0430F370 DCT SOMIG DCT UNIPA DCT KOMAR DCT MOSAV DCT VEBAL DCT BABKO DCT ORTEB/N0432F380 DCT KONZI DCT LOGDA
Aircraft A21N/M-SDE1E2E3FGIJ1J4RWXY/LB1

Departure

Time 2026-05-08 19:04
Airport Lamezia Terme Sant'Eufemia International Airport (LICA)

Arrival

Time 2026-05-08 21:13
Airport Warsaw Chopin Airport (EPWA)
Time Latitude Longitude Altitude Speed Heading
2026-05-08 18:54 38.90878 16.24453 37 ft 0 kts 54°
2026-05-08 18:58 38.90867 16.24470 37 ft 6 kts 178°
2026-05-08 18:58 38.90819 16.24476 37 ft 8 kts 142°
2026-05-08 18:59 38.90797 16.24553 37 ft 11 kts 102°
2026-05-08 18:59 38.90787 16.24660 37 ft 14 kts 95°
2026-05-08 18:59 38.90776 16.24792 37 ft 16 kts 97°
2026-05-08 18:59 38.90758 16.24940 37 ft 18 kts 100°
2026-05-08 19:00 38.90737 16.25104 38 ft 19 kts 98°
2026-05-08 19:00 38.90709 16.25250 38 ft 17 kts 130°
2026-05-08 19:00 38.90635 16.25371 38 ft 19 kts 101°
2026-05-08 19:00 38.90610 16.25544 38 ft 20 kts 100°
2026-05-08 19:01 38.90589 16.25731 37 ft 22 kts 96°
2026-05-08 19:01 38.90567 16.25934 39 ft 24 kts 98°
2026-05-08 19:01 38.90542 16.26151 38 ft 25 kts 98°
2026-05-08 19:01 38.90499 16.26293 39 ft 0 kts 146°
2026-05-08 19:02 38.90494 16.26295 39 ft 3 kts 162°
2026-05-08 19:02 38.90458 16.26302 38 ft 8 kts 180°
2026-05-08 19:03 38.90384 16.26290 38 ft 14 kts 188°
2026-05-08 19:03 38.90311 16.26208 40 ft 16 kts 264°
2026-05-08 19:03 38.90313 16.26176 40 ft 0 kts 279°
2026-05-08 19:03 38.90321 16.26114 39 ft 31 kts 279°
2026-05-08 19:04 38.90394 16.25485 37 ft 110 kts 278°
2026-05-08 19:04 38.90544 16.24225 45 ft 170 kts 279°
2026-05-08 19:04 38.90713 16.22766 721 ft 164 kts 278°
2026-05-08 19:04 38.90867 16.21277 1296 ft 180 kts 277°
2026-05-08 19:05 38.91043 16.19557 1609 ft 211 kts 278°
2026-05-08 19:05 38.91279 16.17552 2097 ft 240 kts 278°
2026-05-08 19:05 38.91534 16.15371 2915 ft 253 kts 278°
2026-05-08 19:05 38.91841 16.13117 3942 ft 257 kts 285°
2026-05-08 19:06 38.92637 16.11078 5100 ft 256 kts 305°
2026-05-08 19:06 38.93784 16.09318 6188 ft 259 kts 308°
2026-05-08 19:06 38.94973 16.07567 7169 ft 262 kts 307°
2026-05-08 19:06 38.96168 16.05791 8113 ft 265 kts 307°
2026-05-08 19:07 38.97379 16.03982 9049 ft 269 kts 307°
2026-05-08 19:07 38.98605 16.02138 9981 ft 273 kts 307°
2026-05-08 19:07 38.99868 16.00230 10565 ft 289 kts 307°
2026-05-08 19:07 39.01208 15.98196 11066 ft 305 kts 307°
2026-05-08 19:08 39.02592 15.96107 11831 ft 311 kts 308°
2026-05-08 19:08 39.04235 15.94255 12678 ft 321 kts 323°
2026-05-08 19:08 39.06253 15.92942 13583 ft 327 kts 330°
2026-05-08 19:08 39.08339 15.91742 14407 ft 330 kts 330°
2026-05-08 19:09 39.10442 15.90531 15227 ft 332 kts 330°
2026-05-08 19:09 39.12549 15.89303 16043 ft 334 kts 329°
2026-05-08 19:09 39.14668 15.88055 16854 ft 336 kts 329°
2026-05-08 19:09 39.16802 15.86795 17668 ft 338 kts 329°
2026-05-08 19:10 39.18950 15.85528 18463 ft 341 kts 329°
2026-05-08 19:10 39.21114 15.84248 19132 ft 344 kts 329°
2026-05-08 19:10 39.23297 15.82955 19773 ft 347 kts 329°
2026-05-08 19:10 39.25504 15.81645 20405 ft 351 kts 329°
2026-05-08 19:11 39.27693 15.80229 21021 ft 351 kts 322°
2026-05-08 19:11 39.29640 15.78357 21624 ft 350 kts 315°
2026-05-08 19:11 39.31496 15.76309 22231 ft 353 kts 314°
2026-05-08 19:11 39.33367 15.74223 22842 ft 357 kts 314°
2026-05-08 19:12 39.35234 15.72150 23439 ft 360 kts 314°
2026-05-08 19:12 39.37172 15.70003 23975 ft 364 kts 314°
2026-05-08 19:12 39.39076 15.67902 24469 ft 367 kts 314°
2026-05-08 19:12 39.41021 15.65754 24980 ft 369 kts 314°
2026-05-08 19:13 39.42980 15.63591 25484 ft 372 kts 314°
2026-05-08 19:13 39.44945 15.61417 25976 ft 374 kts 314°
2026-05-08 19:13 39.46927 15.59226 26468 ft 376 kts 314°
2026-05-08 19:13 39.48924 15.57018 26939 ft 379 kts 314°
2026-05-08 19:14 39.50937 15.54792 27404 ft 382 kts 314°
2026-05-08 19:14 39.52961 15.52549 27857 ft 384 kts 314°
2026-05-08 19:14 39.54993 15.50295 28303 ft 387 kts 314°
2026-05-08 19:14 39.57043 15.48020 28727 ft 389 kts 314°
2026-05-08 19:15 39.59106 15.45726 29158 ft 392 kts 314°
2026-05-08 19:15 39.61182 15.43417 29571 ft 394 kts 314°
2026-05-08 19:15 39.63269 15.41093 29978 ft 397 kts 314°
2026-05-08 19:15 39.65373 15.38746 30343 ft 399 kts 314°
2026-05-08 19:16 39.67479 15.36392 30690 ft 401 kts 314°
2026-05-08 19:16 39.69596 15.34028 31030 ft 402 kts 314°
2026-05-08 19:16 39.71725 15.31659 31363 ft 404 kts 314°
2026-05-08 19:16 39.73868 15.29275 31686 ft 406 kts 314°
2026-05-08 19:17 39.76009 15.26887 32085 ft 405 kts 314°
2026-05-08 19:17 39.78142 15.24503 32511 ft 404 kts 313°
2026-05-08 19:17 39.80260 15.22131 32951 ft 402 kts 313°
2026-05-08 19:17 39.82375 15.19757 33363 ft 401 kts 313°
2026-05-08 19:18 39.84479 15.17394 33776 ft 399 kts 313°
2026-05-08 19:18 39.86571 15.15048 34135 ft 398 kts 313°
2026-05-08 19:18 39.88667 15.12694 34452 ft 397 kts 313°
2026-05-08 19:18 39.90757 15.10343 34758 ft 396 kts 313°
2026-05-08 19:19 39.92835 15.08001 35075 ft 395 kts 313°
2026-05-08 19:19 39.94911 15.05663 35385 ft 393 kts 313°
2026-05-08 19:19 39.96978 15.03336 35683 ft 392 kts 313°
2026-05-08 19:19 39.99039 15.01009 35967 ft 391 kts 312°
2026-05-08 19:20 40.01093 14.98690 36064 ft 391 kts 312°
2026-05-08 19:20 40.05225 14.94096 36044 ft 392 kts 316°
2026-05-08 19:21 40.10192 14.90836 36036 ft 414 kts 337°
2026-05-08 19:21 40.13082 14.90234 36036 ft 427 kts 349°
2026-05-08 19:21 40.16089 14.90454 36036 ft 442 kts
2026-05-08 19:21 40.19092 14.91575 36032 ft 457 kts 15°
2026-05-08 19:22 40.21909 14.93611 36030 ft 471 kts 29°
2026-05-08 19:22 40.24376 14.96495 36038 ft 480 kts 40°
2026-05-08 19:22 40.26651 14.99708 36048 ft 481 kts 41°
2026-05-08 19:23 40.31191 15.06145 36039 ft 480 kts 41°
2026-05-08 19:23 40.35767 15.12499 36041 ft 480 kts 40°
2026-05-08 19:24 40.40349 15.18843 36039 ft 479 kts 41°
2026-05-08 19:24 40.44917 15.25198 36049 ft 479 kts 41°
2026-05-08 19:25 40.49467 15.31582 36050 ft 478 kts 41°
2026-05-08 19:25 40.54015 15.37957 36046 ft 478 kts 41°
2026-05-08 19:26 40.58706 15.44077 36046 ft 468 kts 30°
2026-05-08 19:26 40.61463 15.46221 36052 ft 454 kts 15°
2026-05-08 19:26 40.64424 15.47429 36063 ft 439 kts
2026-05-08 19:27 40.70426 15.48116 36068 ft 432 kts 355°
2026-05-08 19:27 40.76430 15.48690 36068 ft 433 kts 356°
2026-05-08 19:28 40.82428 15.49343 36069 ft 432 kts 356°
2026-05-08 19:28 40.88385 15.50003 36068 ft 433 kts 357°
2026-05-08 19:29 40.94419 15.50676 36070 ft 433 kts 357°
2026-05-08 19:29 41.00381 15.51340 36074 ft 433 kts 357°
2026-05-08 19:30 41.06385 15.52010 36075 ft 433 kts 357°
2026-05-08 19:30 41.12434 15.52688 36070 ft 433 kts 357°
2026-05-08 19:31 41.18431 15.54038 36067 ft 442 kts
2026-05-08 19:31 41.24368 15.55950 36062 ft 442 kts
2026-05-08 19:32 41.30347 15.57881 36062 ft 442 kts
2026-05-08 19:32 41.36309 15.59766 36062 ft 441 kts
2026-05-08 19:33 41.42299 15.61658 36053 ft 441 kts
2026-05-08 19:33 41.48250 15.63556 36065 ft 441 kts
2026-05-08 19:34 41.54218 15.65464 36064 ft 441 kts
2026-05-08 19:34 41.60179 15.67377 36061 ft 441 kts
2026-05-08 19:35 41.66157 15.69301 36057 ft 441 kts
2026-05-08 19:35 41.72122 15.71223 36060 ft 441 kts
2026-05-08 19:36 41.78086 15.73149 36060 ft 441 kts
2026-05-08 19:36 41.83047 15.74753 36053 ft 441 kts
2026-05-08 19:37 41.89007 15.76689 36056 ft 440 kts
2026-05-08 19:37 41.95012 15.78482 36057 ft 437 kts
2026-05-08 19:38 42.01002 15.79875 36089 ft 437 kts
2026-05-08 19:38 42.03912 15.80548 36290 ft 438 kts
2026-05-08 19:38 42.06960 15.81259 36511 ft 438 kts
2026-05-08 19:38 42.09968 15.81962 36744 ft 438 kts
2026-05-08 19:39 42.13009 15.82672 36980 ft 438 kts
2026-05-08 19:39 42.15980 15.83365 37103 ft 440 kts
2026-05-08 19:39 42.19040 15.84079 37104 ft 440 kts
2026-05-08 19:40 42.25069 15.85497 37072 ft 440 kts
2026-05-08 19:40 42.31063 15.86903 37071 ft 440 kts
2026-05-08 19:41 42.37101 15.88317 37072 ft 440 kts
2026-05-08 19:41 42.43139 15.89743 37059 ft 440 kts
2026-05-08 19:42 42.49170 15.91168 37065 ft 440 kts
2026-05-08 19:42 42.55206 15.92595 37070 ft 440 kts
2026-05-08 19:43 42.61236 15.94024 37077 ft 440 kts
2026-05-08 19:43 42.67267 15.95457 37052 ft 440 kts
2026-05-08 19:44 42.73302 15.96891 37061 ft 440 kts
2026-05-08 19:44 42.79332 15.98325 37066 ft 440 kts
2026-05-08 19:45 42.85364 15.99769 37073 ft 440 kts
2026-05-08 19:45 42.91395 16.01226 37065 ft 440 kts
2026-05-08 19:46 42.97420 16.02661 37065 ft 439 kts
2026-05-08 19:46 43.06450 16.04828 37059 ft 439 kts
2026-05-08 19:47 43.12474 16.06281 37054 ft 439 kts
2026-05-08 19:47 43.18471 16.08057 37053 ft 446 kts 12°
2026-05-08 19:48 43.24353 16.10806 37045 ft 447 kts 13°
2026-05-08 19:48 43.30232 16.13583 37035 ft 447 kts 13°
2026-05-08 19:49 43.36117 16.16367 37040 ft 447 kts 13°
2026-05-08 19:49 43.41998 16.19164 37063 ft 447 kts 13°
2026-05-08 19:50 43.47889 16.21949 37052 ft 448 kts 13°
2026-05-08 19:50 43.53769 16.24742 37057 ft 448 kts 13°
2026-05-08 19:51 43.59674 16.27526 37057 ft 448 kts 13°
2026-05-08 19:51 43.65574 16.30330 37057 ft 448 kts 14°
2026-05-08 19:52 43.71466 16.33145 37049 ft 449 kts 14°
2026-05-08 19:52 43.77364 16.35973 37047 ft 449 kts 14°
2026-05-08 19:53 43.83222 16.38802 37049 ft 450 kts 15°
2026-05-08 19:53 43.89132 16.41640 37048 ft 450 kts 14°
2026-05-08 19:54 43.95053 16.44477 37061 ft 450 kts 15°
2026-05-08 19:54 44.00978 16.47330 37063 ft 451 kts 15°
2026-05-08 19:55 44.06993 16.49671 37066 ft 448 kts
2026-05-08 19:55 44.13046 16.51730 37067 ft 448 kts
2026-05-08 19:56 44.19097 16.53799 37079 ft 448 kts 10°
2026-05-08 19:56 44.25164 16.55882 37080 ft 449 kts 10°
2026-05-08 19:57 44.31228 16.57991 37087 ft 449 kts 10°
2026-05-08 19:57 44.37296 16.60064 37085 ft 449 kts 10°
2026-05-08 19:58 44.43357 16.62138 37081 ft 449 kts 10°
2026-05-08 19:58 44.49438 16.64235 37078 ft 450 kts 11°
2026-05-08 19:59 44.55520 16.66342 37080 ft 450 kts 11°
2026-05-08 19:59 44.61587 16.68453 37075 ft 450 kts 11°
2026-05-08 20:00 44.67680 16.70571 37076 ft 451 kts 11°
2026-05-08 20:00 44.73764 16.72699 37074 ft 451 kts 11°
2026-05-08 20:01 44.79861 16.74823 37077 ft 451 kts 11°
2026-05-08 20:01 44.85959 16.76958 37068 ft 452 kts 11°
2026-05-08 20:02 44.92054 16.79105 37065 ft 452 kts 11°
2026-05-08 20:02 44.98188 16.80937 37066 ft 450 kts
2026-05-08 20:03 45.04371 16.82239 37060 ft 450 kts
2026-05-08 20:03 45.10559 16.83546 37069 ft 450 kts
2026-05-08 20:04 45.16759 16.84866 37061 ft 450 kts
2026-05-08 20:04 45.22947 16.86179 37062 ft 450 kts
2026-05-08 20:05 45.29145 16.87498 37059 ft 451 kts
2026-05-08 20:05 45.35358 16.88832 37058 ft 451 kts
2026-05-08 20:06 45.41557 16.90159 37060 ft 451 kts
2026-05-08 20:06 45.47765 16.91499 37062 ft 451 kts
2026-05-08 20:07 45.53972 16.92890 37063 ft 452 kts
2026-05-08 20:07 45.56975 16.94251 37052 ft 457 kts 22°
2026-05-08 20:07 45.59782 16.96399 37065 ft 458 kts 28°
2026-05-08 20:08 45.65260 17.01055 37061 ft 459 kts 29°
2026-05-08 20:08 45.70758 17.05701 37053 ft 459 kts 28°
2026-05-08 20:09 45.76266 17.10328 37057 ft 459 kts 28°
2026-05-08 20:09 45.81772 17.14971 37055 ft 459 kts 28°
2026-05-08 20:10 45.87274 17.19628 37057 ft 459 kts 29°
2026-05-08 20:10 45.92771 17.24311 37053 ft 459 kts 28°
2026-05-08 20:11 45.98281 17.28957 37053 ft 459 kts 26°
2026-05-08 20:11 46.04104 17.32486 37048 ft 457 kts 19°
2026-05-08 20:12 46.10032 17.35786 37050 ft 457 kts 19°
2026-05-08 20:12 46.15957 17.39107 37056 ft 457 kts 19°
2026-05-08 20:13 46.21875 17.42417 37050 ft 457 kts 18°
2026-05-08 20:13 46.27817 17.45735 37054 ft 457 kts 19°
2026-05-08 20:14 46.33744 17.49073 37057 ft 457 kts 19°
2026-05-08 20:14 46.39671 17.52423 37048 ft 457 kts 19°
2026-05-08 20:15 46.45599 17.55778 37053 ft 457 kts 19°
2026-05-08 20:15 46.51526 17.59145 37056 ft 457 kts 19°
2026-05-08 20:16 46.57443 17.62533 37057 ft 457 kts 19°
2026-05-08 20:16 46.63351 17.65935 37060 ft 457 kts 19°
2026-05-08 20:17 46.69268 17.69325 37060 ft 457 kts 18°
2026-05-08 20:17 46.75155 17.72658 37056 ft 457 kts 18°
2026-05-08 20:18 46.81081 17.76049 37065 ft 456 kts 19°
2026-05-08 20:18 46.86981 17.79489 37069 ft 456 kts 19°
2026-05-08 20:19 46.92878 17.82909 37064 ft 456 kts 19°
2026-05-08 20:19 46.98782 17.86320 37065 ft 456 kts 19°
2026-05-08 20:20 47.04631 17.89719 37069 ft 455 kts 18°
2026-05-08 20:20 47.10523 17.93145 37069 ft 456 kts 18°
2026-05-08 20:21 47.15460 17.96017 37070 ft 455 kts 19°
2026-05-08 20:21 47.21354 17.99464 37070 ft 455 kts 18°
2026-05-08 20:22 47.27241 18.02891 37070 ft 455 kts 18°
2026-05-08 20:22 47.33134 18.06315 37070 ft 456 kts 18°
2026-05-08 20:23 47.38990 18.09757 37069 ft 456 kts 19°
2026-05-08 20:23 47.44869 18.13253 37068 ft 456 kts 19°
2026-05-08 20:24 47.50751 18.16759 37075 ft 456 kts 18°
2026-05-08 20:24 47.56648 18.20233 37070 ft 456 kts 18°
2026-05-08 20:25 47.62556 18.23715 37065 ft 457 kts 18°
2026-05-08 20:25 47.68456 18.27220 37066 ft 457 kts 18°
2026-05-08 20:26 47.74352 18.30752 37064 ft 457 kts 19°
2026-05-08 20:26 47.80253 18.34294 37062 ft 457 kts 18°
2026-05-08 20:27 47.86153 18.37819 37063 ft 457 kts 18°
2026-05-08 20:27 47.92052 18.41363 37062 ft 457 kts 18°
2026-05-08 20:28 47.97941 18.44917 37063 ft 457 kts 18°
2026-05-08 20:28 48.03834 18.48475 37061 ft 457 kts 18°
2026-05-08 20:29 48.09732 18.52043 37065 ft 457 kts 18°
2026-05-08 20:29 48.15623 18.55615 37067 ft 457 kts 18°
2026-05-08 20:30 48.21509 18.59199 37064 ft 457 kts 18°
2026-05-08 20:30 48.27399 18.62796 37080 ft 457 kts 18°
2026-05-08 20:31 48.33282 18.66401 37073 ft 457 kts 18°
2026-05-08 20:31 48.39167 18.70008 37078 ft 457 kts 18°
2026-05-08 20:32 48.45057 18.73637 37080 ft 457 kts 18°
2026-05-08 20:32 48.50946 18.77261 37089 ft 457 kts 18°
2026-05-08 20:33 48.56824 18.80934 37087 ft 457 kts 19°
2026-05-08 20:33 48.62713 18.84565 37094 ft 457 kts 18°
2026-05-08 20:34 48.68603 18.88200 37108 ft 457 kts 18°
2026-05-08 20:35 48.77437 18.93700 37109 ft 457 kts 18°
2026-05-08 20:35 48.83316 18.97384 37116 ft 457 kts 18°
2026-05-08 20:36 48.89205 19.01082 37117 ft 458 kts 19°
2026-05-08 20:36 48.95082 19.04785 37122 ft 457 kts 18°
2026-05-08 20:37 49.00955 19.08476 37119 ft 457 kts 18°
2026-05-08 20:37 49.06839 19.12186 37124 ft 457 kts 19°
2026-05-08 20:38 49.12694 19.15893 37139 ft 457 kts 19°
2026-05-08 20:38 49.18539 19.19613 37128 ft 457 kts 19°
2026-05-08 20:39 49.24419 19.23346 37134 ft 457 kts 19°
2026-05-08 20:39 49.30291 19.27088 37138 ft 457 kts 19°
2026-05-08 20:40 49.36164 19.30836 37142 ft 457 kts 19°
2026-05-08 20:40 49.42030 19.34598 37142 ft 457 kts 19°
2026-05-08 20:41 49.47898 19.38373 37144 ft 458 kts 19°
2026-05-08 20:41 49.53781 19.42168 37149 ft 458 kts 19°
2026-05-08 20:42 49.59585 19.46257 37136 ft 463 kts 29°
2026-05-08 20:42 49.62115 19.49353 37128 ft 469 kts 43°
2026-05-08 20:42 49.64168 19.53284 37149 ft 472 kts 53°
2026-05-08 20:43 49.67885 19.61654 37149 ft 473 kts 54°
2026-05-08 20:43 49.70363 19.67211 37148 ft 473 kts 53°
2026-05-08 20:44 49.72888 19.72822 37158 ft 473 kts 53°
2026-05-08 20:44 49.76646 19.81170 37151 ft 473 kts 53°
2026-05-08 20:45 49.80395 19.89530 37150 ft 473 kts 53°
2026-05-08 20:45 49.84145 19.97913 37150 ft 474 kts 53°
2026-05-08 20:46 49.87888 20.06308 37153 ft 474 kts 53°
2026-05-08 20:46 49.91628 20.14728 37150 ft 473 kts 53°
2026-05-08 20:47 49.95355 20.23140 37150 ft 474 kts 53°
2026-05-08 20:47 49.99078 20.31572 37144 ft 474 kts 53°
2026-05-08 20:48 50.02800 20.40040 37142 ft 474 kts 53°
2026-05-08 20:48 50.06521 20.48425 37129 ft 473 kts 50°
2026-05-08 20:48 50.08763 20.52141 37122 ft 469 kts 37°
2026-05-08 20:49 50.11427 20.55017 37130 ft 463 kts 24°
2026-05-08 20:49 50.14360 20.56914 37139 ft 455 kts 11°
2026-05-08 20:49 50.17446 20.57824 37145 ft 448 kts
2026-05-08 20:50 50.23662 20.58411 37143 ft 447 kts 358°
2026-05-08 20:50 50.29881 20.58971 37143 ft 447 kts 359°
2026-05-08 20:51 50.36061 20.59671 37014 ft 447 kts
2026-05-08 20:51 50.39144 20.60548 36288 ft 449 kts
2026-05-08 20:51 50.42204 20.61565 35596 ft 448 kts
2026-05-08 20:51 50.45237 20.62546 35068 ft 442 kts
2026-05-08 20:52 50.48246 20.63462 34562 ft 436 kts
2026-05-08 20:52 50.51202 20.64338 33729 ft 431 kts
2026-05-08 20:52 50.54146 20.65212 32665 ft 429 kts
2026-05-08 20:52 50.57060 20.66085 31793 ft 424 kts
2026-05-08 20:53 50.59936 20.66946 31052 ft 417 kts
2026-05-08 20:53 50.62739 20.67775 30203 ft 421 kts
2026-05-08 20:53 50.65630 20.68595 29274 ft 423 kts
2026-05-08 20:53 50.68518 20.69422 28580 ft 419 kts
2026-05-08 20:54 50.71357 20.70252 27976 ft 414 kts
2026-05-08 20:54 50.74175 20.71088 27312 ft 410 kts
2026-05-08 20:54 50.76970 20.71919 26663 ft 407 kts
2026-05-08 20:54 50.79732 20.72744 26085 ft 402 kts
2026-05-08 20:55 50.82474 20.73562 25473 ft 399 kts
2026-05-08 20:55 50.85183 20.74369 24904 ft 395 kts
2026-05-08 20:55 50.87873 20.75181 24338 ft 391 kts
2026-05-08 20:55 50.90543 20.75982 23763 ft 389 kts
2026-05-08 20:56 50.93187 20.76770 23138 ft 385 kts
2026-05-08 20:56 50.95808 20.77555 22511 ft 381 kts
2026-05-08 20:56 50.98364 20.78334 21936 ft 377 kts
2026-05-08 20:56 51.00962 20.79118 21331 ft 374 kts
2026-05-08 20:57 51.03512 20.79880 20735 ft 371 kts
2026-05-08 20:57 51.06042 20.80638 20182 ft 368 kts
2026-05-08 20:57 51.08538 20.81390 19655 ft 364 kts
2026-05-08 20:57 51.11021 20.82143 19101 ft 361 kts
2026-05-08 20:58 51.13475 20.82884 18508 ft 358 kts
2026-05-08 20:58 51.15860 20.83604 17819 ft 353 kts
2026-05-08 20:58 51.18267 20.84335 17106 ft 349 kts
2026-05-08 20:58 51.20612 20.85050 16606 ft 339 kts
2026-05-08 20:59 51.22890 20.85744 16204 ft 329 kts
2026-05-08 20:59 51.25115 20.86418 15839 ft 322 kts
2026-05-08 20:59 51.27269 20.87075 15474 ft 316 kts
2026-05-08 20:59 51.29461 20.87743 15105 ft 317 kts
2026-05-08 21:00 51.31631 20.88408 14714 ft 319 kts
2026-05-08 21:00 51.33823 20.89077 14330 ft 321 kts
2026-05-08 21:00 51.36022 20.89743 13939 ft 323 kts
2026-05-08 21:00 51.38207 20.90407 13519 ft 324 kts
2026-05-08 21:01 51.40420 20.91086 13088 ft 322 kts
2026-05-08 21:01 51.42618 20.91764 12678 ft 315 kts
2026-05-08 21:01 51.44747 20.92419 12277 ft 309 kts
2026-05-08 21:01 51.46839 20.93061 11882 ft 303 kts
2026-05-08 21:02 51.48200 20.93479 11632 ft 299 kts
2026-05-08 21:02 51.50231 20.94102 11250 ft 296 kts
2026-05-08 21:02 51.52255 20.94726 10875 ft 297 kts
2026-05-08 21:02 51.54292 20.95352 10506 ft 297 kts
2026-05-08 21:03 51.56317 20.95979 10154 ft 298 kts
2026-05-08 21:03 51.58331 20.96602 9809 ft 291 kts
2026-05-08 21:03 51.60276 20.97201 9400 ft 287 kts
2026-05-08 21:03 51.62246 20.97807 8988 ft 288 kts
2026-05-08 21:04 51.64240 20.98421 8592 ft 306 kts
2026-05-08 21:04 51.66454 20.99103 8281 ft 332 kts
2026-05-08 21:04 51.68677 20.99797 8025 ft 320 kts
2026-05-08 21:04 51.70838 21.00473 7583 ft 313 kts
2026-05-08 21:05 51.72965 21.01138 7043 ft 310 kts
2026-05-08 21:05 51.75078 21.01794 6506 ft 308 kts
2026-05-08 21:05 51.77170 21.02445 6021 ft 306 kts
2026-05-08 21:05 51.79259 21.03095 5578 ft 304 kts
2026-05-08 21:06 51.81332 21.03740 5133 ft 301 kts
2026-05-08 21:06 51.83355 21.04373 4785 ft 292 kts
2026-05-08 21:06 51.85313 21.04986 4549 ft 281 kts
2026-05-08 21:06 51.87200 21.05576 4209 ft 274 kts
2026-05-08 21:07 51.89058 21.06155 3821 ft 269 kts
2026-05-08 21:07 51.90872 21.06723 3571 ft 260 kts
2026-05-08 21:07 51.92632 21.07268 3228 ft 255 kts
2026-05-08 21:07 51.94369 21.07790 2983 ft 254 kts
2026-05-08 21:08 51.96112 21.08321 2950 ft 255 kts
2026-05-08 21:08 51.97815 21.08848 2965 ft 258 kts
2026-05-08 21:08 51.99576 21.09395 2981 ft 252 kts
2026-05-08 21:08 52.01253 21.09675 2956 ft 232 kts 353°
2026-05-08 21:09 52.02726 21.08991 2951 ft 212 kts 334°
2026-05-08 21:09 52.03960 21.07905 2940 ft 190 kts 328°
2026-05-08 21:09 52.05032 21.06860 2842 ft 174 kts 329°
2026-05-08 21:09 52.06047 21.05914 2634 ft 162 kts 330°
2026-05-08 21:10 52.07006 21.05061 2392 ft 152 kts 332°
2026-05-08 21:10 52.07858 21.04315 2168 ft 130 kts 332°
2026-05-08 21:10 52.08643 21.03631 1960 ft 126 kts 332°
2026-05-08 21:10 52.09420 21.02953 1788 ft 127 kts 332°
2026-05-08 21:11 52.10197 21.02276 1616 ft 127 kts 333°
2026-05-08 21:11 52.10972 21.01600 1441 ft 126 kts 333°
2026-05-08 21:11 52.11746 21.00925 1261 ft 126 kts 332°
2026-05-08 21:11 52.12507 21.00260 1070 ft 125 kts 332°
2026-05-08 21:12 52.13271 20.99594 894 ft 124 kts 332°
2026-05-08 21:12 52.14022 20.98938 727 ft 123 kts 331°
2026-05-08 21:12 52.14774 20.98281 563 ft 122 kts 331°
2026-05-08 21:12 52.15518 20.97631 405 ft 121 kts 331°
2026-05-08 21:13 52.16230 20.97010 344 ft 103 kts 331°
2026-05-08 21:13 52.16664 20.96629 345 ft 37 kts 332°
2026-05-08 21:13 52.16863 20.96456 352 ft 30 kts 332°
2026-05-08 21:13 52.17005 20.96332 346 ft 23 kts 332°